Wetbulb
67.54 69.99 72.03 73.04 72.45 71.99 71.79 71.91 72.52 72.70 72.59 71.86 71.63 71.59 71.85 71.96 71.85 72.10 72.34 72.32 72.01 71.29 70.59 70.45 71.36 72.12 72.00 71.72 71.37 70.73 69.94 69.24 70.02 70.42 71.04 71.94 71.30 71.58 71.24 70.83 70.58 69.05 70.37
68.21 70.17 71.09 72.37 72.49 72.31 71.62 71.42 72.02 72.10 72.30 71.67 71.36 71.20 71.17 71.41 71.59 71.58 71.68 71.48 71.54 71.16 70.30 70.15 70.49 71.25 71.69 71.17 71.35 70.55 69.51 69.09 69.76 70.25 70.87 71.79 71.54 71.24 70.87 70.31 70.08 68.79 69.38
68.25 69.90 71.07 71.51 72.21 72.15 72.03 71.53 71.35 71.43 70.98 71.18 71.26 71.13 71.04 70.89 71.04 71.25 71.32 71.22 71.01 70.90 70.62 70.05 69.76 70.21 71.09 70.50 70.30 70.22 69.48 69.32 69.67 69.99 70.35 68.03 67.92 70.81 70.72 69.84 70.32 69.32 68.96
69.02 69.56 69.71 69.90 71.41 71.84 71.66 71.21 70.68 70.52 70.22 70.19 70.27 70.70 70.68 70.47 70.59 70.69 70.58 70.68 70.49 70.32 70.33 70.18 69.62 70.06 70.73 70.69 70.39 69.94 70.01 69.62 69.45 69.38 68.15 67.83 68.10 70.35 70.52 69.96 69.75 69.15 68.59
68.09 69.15 69.23 69.88 71.12 71.10 70.90 70.78 70.45 70.15 69.67 69.27 69.19 69.41 69.50 69.90 70.21 70.34 70.32 70.20 70.23 70.11 70.01 69.98 70.25 70.19 70.62 70.33 70.20 70.18 70.03 69.80 68.95 68.52 66.97 66.49 66.42 69.01 70.42 70.08 69.29 69.31 69.10
65.38 66.93 68.60 69.81 70.25 70.19 70.14 70.02 69.95 69.82 69.41 69.08 69.01 69.10 68.99 69.21 70.31 70.52 70.25 69.98 70.03 70.08 70.07 69.81 70.11 71.23 71.11 70.21 69.84 69.70 69.54 69.37 68.42 66.81 66.43 66.31 66.37 69.33 70.06 70.02 69.28 69.03 68.14
58.68 62.45 66.05 67.34 68.05 68.33 68.48 68.90 69.16 69.28 69.21 69.08 68.75 68.69 68.82 68.82 69.19 69.31 69.47 69.28 69.34 69.40 69.07 69.23 69.63 70.50 70.54 69.99 70.03 70.04 69.52 68.46 67.41 65.98 65.69 64.75 65.99 69.93 70.25 69.59 68.76 68.24 67.90
57.65 57.77 58.48 62.68 64.80 66.18 66.77 67.04 67.13 66.99 67.00 66.71 67.09 67.74 68.21 68.49 68.74 68.76 68.65 68.73 68.71 68.54 68.92 69.25 69.81 69.94 70.06 69.82 69.58 69.02 68.24 66.75 66.22 65.53 65.69 63.46 66.80 70.20 70.23 69.52 68.86 68.33 68.25
54.35 54.68 55.87 56.92 58.68 60.09 62.56 63.65 62.85 61.46 61.60 60.32 60.47 62.68 65.38 65.98 66.03 66.31 66.98 67.73 68.02 68.06 68.21 69.28 69.39 69.17 69.57 69.39 68.80 68.03 66.43 65.36 65.61 65.44 65.15 62.43 66.93 70.00 70.04 69.52 69.02 68.96 68.48
50.88 51.47 51.40 52.60 54.42 53.72 55.22 58.50 59.25 60.05 60.52 60.08 59.41 59.25 58.36 58.21 60.69 61.97 63.19 65.08 66.82 67.36 67.44 67.94 68.71 68.76 68.73 68.59 67.34 65.91 64.53 64.24 65.00 63.86 64.14 63.53 67.06 70.09 70.96 69.76 68.94 69.09 68.33
49.51 49.24 49.59 49.76 50.01 52.11 53.37 55.17 56.79 58.33 58.55 57.76 56.77 57.52 55.55 54.30 54.86 55.63 58.04 61.15 63.34 65.27 66.68 66.86 66.74 67.33 66.66 65.47 64.95 64.16 63.08 64.57 64.26 64.31 63.57 63.71 66.75 69.51 70.56 69.94 68.82 68.80 68.36
45.24 47.42 48.32 48.37 48.63 49.54 53.50 51.25 51.43 53.21 52.28 52.83 52.49 52.52 53.38 52.74 53.95 55.88 55.29 58.01 58.23 57.88 62.14 65.25 66.18 65.23 63.39 64.73 64.15 62.98 63.69 64.02 63.89 63.97 63.59 64.03 66.39 68.96 70.33 69.81 69.16 68.56 68.51
44.73 47.49 48.32 48.54 48.45 48.52 48.49 49.24 49.20 50.18 49.10 50.39 50.47 50.78 51.59 51.74 51.58 52.11 52.47 52.98 53.06 54.03 55.07 60.48 62.94 62.95 62.95 63.81 64.12 63.80 63.45 63.43 63.81 63.99 63.69 63.16 65.93 67.42 70.02 69.84 69.30 68.96 68.43
44.47 46.15 47.69 48.31 48.90 48.04 47.61 47.35 47.56 48.10 47.72 48.41 48.81 49.89 49.74 48.84 48.79 49.52 50.16 50.76 51.87 52.33 51.80 52.00 55.77 61.32 63.33 63.71 63.70 63.42 63.39 63.22 64.14 63.94 63.18 60.86 63.78 67.11 69.20 69.96 69.54 68.89 68.32
44.47 45.52 46.57 47.24 47.25 47.79 47.49 46.75 46.79 46.52 46.90 47.29 47.76 48.93 48.92 47.74 47.50 48.20 48.55 49.05 50.07 51.71 51.81 51.15 50.95 53.00 56.73 61.68 63.55 63.46 63.40 63.12 63.48 63.87 63.71 58.92 61.28 65.19 67.86 69.54 69.37 68.87 68.47
44.27 45.26 46.53 46.68 46.22 47.02 45.56 45.43 44.94 45.33 45.57 45.63 45.89 46.61 47.17 46.79 45.78 46.16 46.71 47.33 47.68 49.11 51.28 51.48 50.94 50.43 50.92 53.59 55.71 59.99 62.53 63.09 63.28 62.73 62.86 62.45 60.27 62.77 65.88 67.96 68.99 69.00 68.32
43.79 46.37 46.06 45.31 45.56 44.62 44.11 44.03 43.87 44.23 45.27 44.05 44.53 45.08 45.31 46.13 44.89 44.47 44.40 44.73 45.74 46.94 47.73 49.77 50.98 50.40 49.73 50.55 50.48 52.50 55.62 59.39 62.71 63.04 62.67 62.35 62.10 59.84 62.61 66.18 67.23 68.42 68.94
44.33 44.39 44.85 47.08 44.32 43.59 42.80 42.49 42.91 42.94 42.37 42.52 42.93 43.22 43.94 44.92 44.83 43.05 43.06 43.28 44.73 45.24 45.67 45.66 47.46 49.06 48.37 47.88 47.95 48.42 49.52 53.19 55.59 61.03 62.65 62.59 62.33 62.15 60.99 63.07 65.14 66.04 67.89
43.40 43.42 43.28 43.89 43.32 42.92 42.44 42.15 41.65 41.88 41.45 41.66 41.29 41.29 42.03 43.37 43.80 42.36 41.96 42.08 43.17 43.01 43.43 44.18 44.79 45.74 46.70 46.80 47.36 47.93 48.01 48.49 50.02 52.72 54.99 61.84 62.22 62.16 62.03 61.58 61.60 62.02 64.74
41.24 41.66 42.24 42.65 42.14 41.82 40.97 40.19 39.64 39.39 39.44 39.10 39.15 40.10 41.46 41.29 41.87 40.70 40.46 40.48 41.32 41.09 41.21 41.99 42.18 43.44 44.35 45.39 47.22 47.94 46.46 47.43 48.55 49.34 50.73 54.12 61.09 61.93 62.25 61.77 61.85 61.68 60.87
40.44 40.51 40.93 40.95 40.33 39.30 37.73 36.47 35.76 35.03 36.17 36.67 37.94 39.57 39.87 40.07 40.72 39.93 39.35 39.63 40.14 39.96 40.22 40.98 41.25 40.69 41.40 43.58 43.92 44.39 46.01 46.84 47.24 48.08 48.95 49.59 51.45 60.41 61.22 61.74 61.69 61.81 62.07
39.41 39.81 40.08 40.25 39.11 38.61 37.27 36.27 35.59 34.86 35.20 36.07 37.45 38.31 39.23 39.57 39.80 39.61 38.59 38.38 38.52 38.46 38.53 38.85 39.32 39.36 40.41 42.03 41.28 42.56 40.64 41.54 42.41 45.45 47.00 47.79 48.18 52.30 59.71 60.94 61.41 61.34 61.43
37.75 38.26 39.42 39.00 38.49 37.44 37.10 36.41 35.61 35.03 34.49 34.16 34.95 35.62 37.13 38.34 38.64 38.50 38.09 37.81 37.61 37.81 37.23 37.73 38.17 38.07 37.18 39.28 40.98 41.94 41.34 38.69 39.62 42.28 43.77 45.42 46.69 50.50 57.02 59.73 60.67 60.98 60.72
37.30 38.16 38.69 38.58 37.76 37.47 36.31 34.74 33.18 31.83 30.88 32.35 33.21 34.57 35.25 36.72 36.79 37.57 38.03 37.76 38.65 38.82 37.93 37.93 38.81 38.35 38.83 37.13 38.57 41.75 41.89 42.23 40.63 40.31 40.20 41.60 45.40 47.68 51.22 57.65 58.82 60.00 60.27
38.02 36.99 37.09 37.05 36.77 36.08 35.18 34.23 32.50 31.56 32.13 32.60 32.55 32.80 33.37 34.31 35.30 35.60 35.97 35.92 36.33 37.69 38.03 37.78 37.44 37.01 37.80 37.68 37.75 38.47 38.26 38.99 40.60 39.80 38.69 41.85 40.74 43.38 48.67 50.97 52.56 57.43 59.18
37.03 36.74 36.15 35.89 35.29 35.34 34.24 33.56 32.37 31.22 31.01 30.82 31.06 30.83 31.75 32.65 33.25 34.49 35.58 35.49 35.86 36.04 36.19 36.62 36.98 36.89 36.69 37.06 37.65 38.25 38.33 38.08 38.30 38.56 37.86 40.15 40.86 42.65 44.34 47.05 50.10 52.53 56.30
MSLP
1013.12 1012.91 1012.95 1013.13 1013.36 1013.48 1013.64 1013.73 1013.85 1014.00 1014.21 1014.30 1014.49 1014.61 1014.71 1014.82 1014.93 1015.11 1015.21 1015.30 1015.47 1015.47 1015.54 1015.71 1015.91 1016.02 1016.03 1016.26 1016.36 1016.52 1016.69 1016.84 1016.95 1016.98 1017.15 1017.13 1017.33 1017.48 1017.65 1017.81 1018.02 1018.10 1018.15
1012.59 1012.87 1012.97 1013.14 1013.35 1013.52 1013.73 1013.95 1014.02 1014.10 1014.18 1014.32 1014.46 1014.56 1014.81 1014.90 1015.09 1015.11 1015.29 1015.40 1015.50 1015.58 1015.75 1015.82 1015.92 1016.03 1016.07 1016.21 1016.42 1016.59 1016.77 1016.85 1016.94 1017.06 1017.08 1017.28 1017.45 1017.63 1017.75 1018.01 1018.18 1018.32 1018.46
1012.67 1013.00 1013.05 1013.13 1013.38 1013.62 1013.84 1014.03 1014.17 1014.29 1014.34 1014.48 1014.58 1014.68 1014.68 1014.91 1015.09 1015.22 1015.39 1015.50 1015.59 1015.72 1015.69 1015.85 1015.98 1016.10 1016.14 1016.37 1016.54 1016.68 1016.81 1016.96 1017.02 1017.12 1017.12 1017.35 1017.52 1017.64 1017.84 1018.05 1018.07 1018.45 1018.60
1012.77 1013.05 1013.20 1013.28 1013.46 1013.69 1013.89 1014.01 1014.14 1014.38 1014.50 1014.69 1014.78 1014.75 1014.87 1015.02 1015.08 1015.28 1015.32 1015.57 1015.65 1015.78 1015.76 1015.84 1015.93 1016.04 1016.20 1016.31 1016.49 1016.69 1016.86 1017.00 1017.12 1017.27 1017.31 1017.28 1017.48 1017.56 1017.84 1018.08 1018.09 1018.37 1018.56
1013.12 1013.28 1013.47 1013.49 1013.60 1013.75 1013.91 1014.15 1014.26 1014.35 1014.50 1014.73 1014.82 1014.91 1014.91 1015.12 1015.17 1015.31 1015.36 1015.42 1015.62 1015.66 1015.72 1015.69 1015.82 1015.93 1016.07 1016.25 1016.33 1016.50 1016.65 1016.88 1017.10 1017.18 1017.32 1017.42 1017.45 1017.51 1017.69 1017.92 1018.04 1018.30 1018.50
1013.61 1013.59 1013.71 1013.67 1013.82 1013.96 1014.13 1014.24 1014.32 1014.37 1014.47 1014.50 1014.66 1014.83 1014.96 1015.12 1015.23 1015.32 1015.33 1015.42 1015.52 1015.67 1015.70 1015.63 1015.65 1015.76 1015.97 1016.03 1016.19 1016.32 1016.57 1016.74 1016.92 1017.15 1017.31 1017.18 1017.37 1017.37 1017.50 1017.81 1018.13 1018.23 1018.46
1013.98 1013.99 1013.98 1013.96 1014.08 1014.14 1014.26 1014.35 1014.47 1014.55 1014.58 1014.66 1014.65 1014.72 1014.86 1015.11 1015.17 1015.27 1015.30 1015.31 1015.38 1015.40 1015.54 1015.63 1015.62 1015.58 1015.70 1015.84 1015.96 1016.10 1016.22 1016.58 1016.65 1017.03 1017.06 1017.06 1017.15 1017.03 1017.23 1017.76 1018.01 1018.20 1018.49
1013.95 1014.14 1014.26 1014.39 1014.39 1014.47 1014.61 1014.61 1014.72 1014.90 1014.88 1014.91 1014.98 1014.87 1014.88 1014.92 1015.03 1015.16 1015.13 1015.25 1015.19 1015.25 1015.23 1015.29 1015.36 1015.43 1015.46 1015.50 1015.57 1015.85 1016.01 1016.08 1016.51 1016.57 1016.58 1016.77 1016.75 1016.79 1016.85 1017.21 1017.73 1017.92 1018.14
1013.93 1014.24 1014.52 1014.64 1014.70 1014.75 1014.83 1014.97 1015.07 1015.12 1015.14 1015.06 1015.12 1015.10 1015.12 1014.97 1015.08 1015.15 1015.07 1015.07 1015.03 1015.11 1015.08 1015.02 1015.02 1015.08 1015.10 1015.19 1015.12 1015.15 1015.46 1015.83 1015.99 1016.11 1016.23 1016.25 1016.32 1016.31 1016.34 1016.65 1017.30 1017.48 1017.82
1014.24 1014.40 1014.63 1014.88 1015.00 1015.13 1015.24 1015.28 1015.34 1015.27 1015.37 1015.41 1015.46 1015.48 1015.51 1015.40 1015.45 1015.46 1015.38 1015.31 1015.01 1014.95 1014.93 1014.85 1014.72 1014.65 1014.66 1014.72 1014.82 1014.69 1014.68 1015.04 1015.56 1015.67 1015.73 1015.83 1015.72 1015.69 1015.75 1016.01 1016.79 1017.10 1017.43
1014.44 1014.59 1014.74 1014.95 1015.18 1015.30 1015.45 1015.50 1015.47 1015.45 1015.58 1015.70 1015.74 1015.70 1015.72 1015.73 1015.66 1015.64 1015.63 1015.47 1015.33 1015.14 1014.96 1014.68 1014.60 1014.48 1014.41 1014.42 1014.42 1014.51 1014.39 1014.23 1014.67 1015.05 1015.22 1015.22 1015.37 1015.21 1015.23 1015.55 1016.12 1016.72 1016.96
1014.72 1014.85 1014.87 1015.09 1015.28 1015.38 1015.31 1015.53 1015.65 1015.74 1015.85 1015.91 1015.90 1015.95 1015.98 1015.94 1015.83 1015.68 1015.69 1015.53 1015.31 1015.18 1014.93 1014.65 1014.48 1014.37 1014.32 1014.24 1014.14 1014.22 1014.31 1014.34 1014.04 1014.10 1014.51 1014.57 1014.78 1014.81 1014.84 1014.97 1015.40 1016.28 1016.59
1014.55 1014.68 1014.92 1015.25 1015.42 1015.48 1015.56 1015.69 1015.80 1016.04 1016.11 1016.16 1016.11 1016.04 1016.03 1016.01 1015.98 1015.90 1015.79 1015.62 1015.45 1015.27 1015.01 1014.64 1014.35 1014.13 1013.99 1014.01 1013.85 1013.78 1013.95 1013.83 1013.71 1013.83 1013.81 1013.93 1014.13 1014.36 1014.25 1014.53 1014.76 1015.47 1015.89
1014.51 1014.76 1014.98 1015.35 1015.50 1015.68 1015.84 1015.97 1016.03 1016.16 1016.21 1016.20 1016.14 1016.03 1016.12 1016.25 1016.17 1016.07 1015.97 1015.79 1015.60 1015.31 1015.12 1014.90 1014.60 1014.03 1013.63 1013.44 1013.35 1013.42 1013.39 1013.36 1013.36 1013.23 1013.19 1013.34 1013.82 1013.81 1013.81 1014.01 1014.19 1014.74 1015.27
1014.40 1014.77 1015.06 1015.42 1015.65 1015.65 1015.80 1015.94 1016.09 1016.18 1016.18 1016.21 1016.18 1016.16 1016.19 1016.34 1016.43 1016.16 1015.95 1015.74 1015.52 1015.19 1015.04 1014.77 1014.63 1014.31 1013.95 1013.50 1013.07 1012.72 1012.71 1012.79 1012.99 1012.90 1012.86 1012.63 1012.81 1013.23 1013.20 1013.22 1013.52 1013.85 1014.48
1014.22 1014.75 1015.01 1015.39 1015.59 1015.65 1016.06 1016.20 1016.36 1016.30 1016.27 1016.23 1016.24 1016.28 1016.28 1016.30 1016.31 1016.11 1015.93 1015.75 1015.49 1015.16 1014.91 1014.71 1014.44 1014.18 1013.99 1013.76 1013.40 1012.91 1012.42 1011.91 1012.13 1012.25 1012.32 1012.30 1012.31 1012.16 1012.48 1012.60 1012.79 1013.07 1013.58
1013.99 1014.51 1014.94 1015.36 1015.59 1016.04 1016.31 1016.40 1016.43 1016.38 1016.34 1016.47 1016.51 1016.41 1016.36 1016.24 1016.13 1016.03 1015.96 1015.89 1015.55 1015.14 1014.80 1014.54 1014.23 1013.99 1013.74 1013.50 1013.33 1013.03 1012.66 1012.04 1011.57 1011.12 1011.29 1011.51 1011.46 1011.78 1011.76 1011.64 1011.91 1012.32 1012.57
1014.06 1014.55 1014.86 1015.28 1015.83 1016.15 1016.37 1016.44 1016.43 1016.42 1016.46 1016.55 1016.55 1016.45 1016.28 1016.12 1015.97 1015.93 1015.94 1015.85 1015.53 1015.15 1014.92 1014.67 1014.30 1013.96 1013.63 1013.33 1013.04 1012.74 1012.49 1012.10 1011.59 1011.00 1010.36 1010.42 1010.55 1010.89 1010.82 1011.00 1010.87 1011.45 1011.87
1014.05 1014.48 1014.98 1015.36 1015.90 1016.18 1016.29 1016.26 1016.32 1016.41 1016.62 1016.68 1016.67 1016.54 1016.34 1016.18 1016.02 1016.00 1015.93 1015.72 1015.41 1015.23 1015.00 1014.62 1014.23 1014.05 1013.67 1013.18 1012.78 1012.37 1011.99 1011.73 1011.34 1010.90 1010.38 1009.81 1009.67 1009.85 1009.62 1009.71 1010.19 1010.39 1010.85
1014.17 1014.52 1014.97 1015.48 1015.91 1016.24 1016.40 1016.45 1016.60 1016.71 1016.75 1016.86 1016.82 1016.56 1016.29 1016.19 1016.00 1015.93 1015.81 1015.65 1015.36 1015.22 1014.96 1014.69 1014.36 1013.86 1013.45 1013.07 1012.49 1012.02 1011.59 1011.12 1010.81 1010.51 1010.14 1009.66 1008.99 1008.73 1008.95 1008.94 1009.07 1009.50 1009.75
1014.30 1014.81 1015.17 1015.54 1015.99 1016.41 1016.73 1016.97 1017.17 1017.16 1016.93 1016.80 1016.64 1016.43 1016.27 1016.06 1015.96 1015.81 1015.56 1015.44 1015.27 1015.28 1015.01 1014.73 1014.34 1013.82 1013.30 1012.96 1012.51 1011.69 1010.87 1010.39 1010.02 1009.79 1009.54 1009.18 1008.84 1008.36 1007.83 1007.75 1008.19 1008.38 1008.81
1014.32 1014.79 1015.28 1015.61 1016.08 1016.47 1016.88 1017.13 1017.21 1017.22 1016.94 1016.88 1016.59 1016.31 1016.10 1016.02 1015.85 1015.60 1015.43 1015.33 1015.10 1015.00 1014.83 1014.60 1014.41 1013.97 1013.40 1013.04 1012.77 1012.28 1010.70 1009.55 1009.21 1008.75 1008.36 1008.08 1007.76 1007.75 1007.40 1007.06 1006.96 1007.43 1007.63
1014.49 1014.81 1015.19 1015.58 1016.03 1016.54 1016.94 1017.09 1017.14 1017.09 1017.07 1016.88 1016.53 1016.30 1016.14 1015.98 1015.66 1015.37 1015.17 1015.10 1014.89 1014.77 1014.57 1014.37 1014.25 1014.00 1013.48 1013.15 1012.85 1012.71 1011.28 1010.20 1009.59 1008.32 1008.22 1008.15 1007.90 1007.44 1006.71 1006.58 1006.64 1005.90 1006.52
1014.38 1014.82 1015.07 1015.53 1016.02 1016.57 1016.85 1017.07 1017.24 1017.39 1017.29 1016.79 1016.57 1016.34 1016.14 1015.81 1015.53 1015.32 1015.18 1014.92 1014.54 1014.35 1014.16 1013.99 1013.77 1013.59 1013.28 1012.90 1012.60 1012.08 1011.76 1011.22 1010.38 1008.58 1008.04 1007.80 1007.71 1007.50 1007.18 1006.43 1006.10 1005.84 1005.63
1014.08 1014.64 1015.05 1015.50 1016.00 1016.51 1016.69 1016.84 1017.09 1017.08 1016.97 1016.61 1016.51 1016.31 1015.99 1015.63 1015.45 1015.28 1015.18 1014.94 1014.61 1014.30 1014.01 1013.74 1013.65 1013.38 1013.13 1012.83 1012.27 1011.92 1011.62 1011.13 1010.69 1009.84 1008.01 1007.72 1007.45 1007.23 1007.03 1006.73 1006.46 1005.73 1005.12
1014.09 1014.51 1015.03 1015.49 1015.97 1016.36 1016.58 1016.72 1016.81 1016.78 1016.67 1016.67 1016.46 1016.16 1015.80 1015.56 1015.34 1015.14 1014.80 1014.64 1014.36 1014.10 1013.79 1013.54 1013.29 1013.06 1012.88 1012.55 1012.18 1011.75 1011.28 1010.80 1009.99 1009.59 1008.76 1008.03 1007.41 1006.74 1006.61 1006.23 1005.97 1005.76 1005.53
Wind_Speed
5 7 12 10 10 10 10 10 9 8 7 7 7 7 8 9 9 8 8 8 7 5 3 2 5 10 9 9 9 9 9 7 7 8 5 8 10 12 13 13 10 8 13
9 8 11 11 9 11 10 10 8 8 7 7 7 7 7 8 7 7 7 7 7 6 3 1 3 7 7 9 8 7 6 6 7 7 5 8 10 12 15 13 11 10 12
11 8 8 11 8 9 9 8 8 7 8 7 5 5 6 6 5 5 5 5 5 5 4 3 1 4 7 7 7 7 6 6 7 5 8 5 6 12 14 14 15 12 12
11 10 6 10 9 9 8 7 7 6 6 6 5 5 4 3 3 2 2 2 2 3 3 2 0 4 6 7 8 8 7 7 7 5 4 5 6 14 15 15 16 14 13
10 10 8 11 10 8 7 6 5 4 4 3 3 2 2 1 0 1 1 1 2 3 4 4 4 3 6 6 7 8 8 9 8 6 5 5 5 10 16 16 15 15 13
9 8 9 11 12 12 11 8 4 3 2 1 1 1 2 2 3 3 2 3 4 6 6 7 7 5 7 8 8 8 8 9 9 6 6 6 7 12 16 17 12 13 12
7 6 8 13 13 11 10 10 10 9 8 6 4 3 4 4 4 5 5 5 7 7 8 9 9 8 7 9 10 10 10 10 7 6 6 6 6 16 18 18 17 16 15
9 7 7 11 13 13 12 11 11 11 11 10 9 8 6 5 6 6 7 8 8 9 9 11 9 9 8 8 10 13 12 12 8 7 8 5 10 19 19 19 20 19 18
7 7 6 7 10 13 12 11 11 11 10 10 9 9 9 8 7 5 6 8 8 8 10 11 10 10 9 10 10 12 12 12 7 7 8 5 12 22 21 21 21 20 19
7 7 7 6 6 6 5 10 10 10 10 11 11 10 10 10 9 9 8 7 8 10 8 10 10 11 11 10 11 11 13 14 10 7 8 6 13 23 22 21 23 21 21
6 7 7 6 5 6 6 6 7 9 9 9 7 9 7 5 6 6 7 8 10 11 12 12 10 8 10 10 11 11 11 7 8 7 6 10 13 21 22 20 23 23 22
6 6 7 6 5 5 4 5 5 5 4 3 4 4 3 3 4 5 6 8 9 9 9 11 14 11 8 5 3 7 5 6 7 8 8 14 14 20 22 21 24 24 23
7 6 7 6 5 5 4 3 3 2 2 2 3 3 3 3 3 3 3 3 4 6 4 6 5 4 7 6 6 5 7 7 6 7 10 15 19 19 23 22 24 26 26
7 8 8 7 5 4 3 3 3 2 1 2 2 4 2 2 4 4 3 5 4 3 5 5 4 6 8 9 8 8 7 6 6 6 9 13 18 22 22 24 25 28 28
8 7 8 7 6 4 5 3 3 3 3 3 4 4 4 3 4 4 4 4 5 4 4 5 5 5 7 8 9 10 9 9 10 7 6 14 17 23 25 26 27 29 31
8 8 8 8 6 5 3 3 2 3 3 4 4 4 5 4 4 4 4 4 5 4 4 5 5 5 5 5 8 9 10 11 12 12 9 11 15 20 26 26 27 28 32
6 8 8 8 6 6 5 3 2 2 4 4 4 6 6 5 5 5 4 4 4 4 6 5 5 5 4 5 7 8 8 11 10 13 14 11 11 16 21 27 29 28 30
8 9 8 6 7 5 4 2 2 2 3 3 4 4 6 5 5 5 4 4 5 5 4 4 4 6 5 4 4 6 7 8 11 11 11 13 12 12 14 25 26 29 30
8 9 8 7 5 4 2 2 3 4 3 4 4 4 6 5 5 4 4 4 5 5 6 6 7 4 6 4 5 6 6 7 9 10 12 15 13 11 11 16 23 27 31
8 8 8 6 6 4 2 3 2 3 2 3 4 4 6 4 5 4 4 5 5 6 6 6 7 6 5 6 8 8 5 6 6 8 10 12 12 19 14 16 13 16 27
8 8 7 7 4 2 2 2 2 3 2 2 3 6 6 5 6 5 4 4 4 5 6 7 8 8 6 4 6 8 8 9 11 11 10 11 14 12 18 17 13 11 13
8 8 7 6 4 2 2 1 1 2 2 3 3 4 5 5 5 6 4 4 4 5 7 7 7 6 4 3 4 6 7 5 5 10 10 11 14 12 13 17 18 17 14
8 8 7 6 4 2 1 1 2 2 2 2 2 3 3 5 6 6 6 5 5 4 6 6 5 7 7 4 5 5 5 5 3 2 2 5 6 9 12 13 15 16 13
7 7 7 6 4 2 1 1 1 2 3 2 2 3 4 5 5 6 7 7 9 6 8 7 7 7 5 7 4 6 8 8 6 9 1 2 3 5 8 9 11 17 20
9 8 7 6 3 2 1 1 1 2 2 3 3 5 5 4 5 5 6 8 8 7 8 8 9 11 8 8 8 7 8 8 7 8 14 8 5 3 4 6 7 10 11
7 7 7 5 3 2 1 1 2 3 5 4 4 4 3 3 4 6 9 9 9 9 9 8 9 10 9 10 8 9 8 7 6 6 9 11 12 10 8 8 8 8 8
Wind_Direction
173 141 129 133 130 119 104 97 104 120 122 118 111 100 96 88 77 67 67 60 49 71 103 162 197 175 156 137 127 120 123 124 125 123 117 114 127 130 127 120 114 114 114
141 139 126 122 129 121 113 104 95 99 105 127 119 107 103 98 94 89 75 59 59 65 60 124 203 208 193 166 140 130 127 135 137 135 139 131 138 143 140 126 118 126 121
130 125 120 121 119 119 115 106 100 94 94 89 109 104 108 106 101 93 81 70 50 33 55 84 181 226 216 187 162 153 149 154 155 147 146 141 155 169 154 146 134 136 134
113 100 95 109 111 115 120 118 114 108 97 88 83 85 73 80 108 100 89 64 31 354 352 355 175 201 215 204 192 188 179 175 177 175 166 158 177 184 165 160 142 150 144
82 88 84 87 89 95 111 121 120 113 104 92 92 97 107 96 4 226 212 247 263 274 290 288 279 232 212 212 203 201 194 190 192 188 199 185 193 192 175 166 159 156 152
79 72 82 88 92 87 79 76 94 125 122 94 4 308 275 265 245 254 248 252 256 263 258 257 267 272 235 216 205 204 212 205 203 202 219 204 193 196 188 173 165 157 149
92 90 93 98 98 98 99 86 75 70 63 50 29 331 305 301 307 294 286 277 278 276 276 268 261 268 269 240 217 209 206 214 196 213 222 220 205 198 197 181 172 164 167
118 103 92 90 87 88 92 90 82 81 80 75 62 53 46 23 354 319 300 292 283 280 283 277 266 258 261 260 237 222 215 203 209 213 219 220 208 206 204 191 182 177 178
102 104 100 90 92 90 91 94 95 86 81 71 64 60 54 60 39 4 318 300 290 290 285 277 263 258 254 255 247 210 210 212 205 215 230 215 212 212 210 196 192 182 180
112 107 103 109 110 98 95 97 92 85 75 66 55 52 44 37 24 11 16 353 312 287 286 305 267 252 252 251 244 223 209 204 214 217 228 238 217 220 216 203 194 187 181
114 115 105 97 100 116 115 99 87 81 76 64 48 41 29 21 16 10 353 351 348 322 293 275 278 286 273 257 248 243 214 199 200 216 228 233 235 230 215 203 191 193 185
135 125 114 101 89 91 93 88 81 76 65 69 67 45 25 7 344 353 343 336 336 332 322 297 283 273 279 265 250 251 238 238 207 208 221 237 240 235 227 206 187 196 192
154 124 120 111 93 92 89 85 70 66 46 34 47 20 346 351 333 321 319 321 315 319 318 322 291 259 251 250 249 222 227 218 221 221 228 230 240 245 228 212 191 196 197
147 143 135 129 118 99 98 87 90 80 33 20 339 346 349 323 315 304 303 296 288 284 289 298 303 301 276 256 243 241 224 216 224 226 223 226 245 243 236 218 198 199 200
138 144 151 141 135 113 91 68 43 18 12 341 353 341 349 330 309 299 293 298 293 295 270 273 278 287 296 294 268 244 232 221 224 220 227 228 226 245 237 226 218 202 205
148 153 143 129 124 108 94 72 39 10 344 358 349 338 341 333 320 311 314 305 301 295 287 272 259 254 267 285 287 288 277 234 221 220 226 229 220 222 240 233 222 216 210
161 147 127 120 108 95 87 68 35 352 8 352 328 325 320 322 319 317 319 310 300 305 304 293 277 270 259 263 272 279 281 279 266 230 219 225 235 230 230 236 225 221 213
137 133 123 107 104 98 84 47 8 344 346 318 306 309 317 324 333 327 322 314 310 315 304 303 292 277 257 247 259 267 272 276 277 274 239 226 222 227 223 235 231 223 219
137 129 118 112 119 103 62 9 358 345 336 335 345 337 321 321 324 325 315 310 320 316 312 308 302 285 288 271 259 256 255 258 263 270 273 241 226 226 220 222 229 236 218
122 118 123 123 115 92 55 21 351 344 356 341 325 316 324 314 313 311 304 307 315 310 306 302 295 291 282 283 285 276 254 250 253 255 262 263 265 233 222 227 217 228 222
122 117 126 121 100 83 39 16 359 299 300 307 305 294 294 301 301 299 289 294 302 304 305 304 302 298 298 296 295 287 266 246 251 253 248 245 248 257 234 217 220 219 224
149 140 131 118 102 78 97 212 225 277 299 277 291 325 342 334 320 310 321 297 291 295 298 297 299 303 292 280 281 301 293 298 257 241 235 237 241 241 240 239 217 216 216
158 151 136 124 121 109 147 346 339 334 313 297 313 300 319 321 315 310 299 285 282 274 286 285 285 288 291 285 272 262 291 249 319 315 245 269 280 259 245 229 236 208 218
162 148 128 132 125 158 102 58 341 241 282 267 291 291 309 320 321 322 314 308 296 285 281 283 281 272 282 284 283 260 266 294 294 295 274 267 320 290 299 269 246 238 226
151 149 136 131 132 154 116 117 262 281 261 298 307 300 295 292 295 294 304 304 303 300 291 287 285 281 279 287 273 266 268 280 277 276 283 275 292 250 268 268 296 263 242
146 137 138 141 164 150 137 299 304 307 313 309 290 297 298 299 298 297 310 304 299 295 294 291 285 276 273 272 276 276 271 267 269 268 274 274 260 269 265 268 261 260 271